Location: *
(51.1248°S, 108.4023°W)
Time: 07:20:04
(UTC+00:00)

Envisat - Pass Details

Date: 27 September 2021
Orbit: 764 x 766 km, 98.2° (Epoch: 27 October)

Event Time Altitude Azimuth Distance (km) Brightness Sun altitude
Rises 01:49:17 0° 173° (S) 3,279 6.3 -5.7°
Reaches altitude 10° 01:51:53 10° 184° (S) 2,345 5.7 -6.1°
Maximum altitude 01:56:12 27° 240° (WSW) 1,452 5.4 -6.7°
Drops below altitude 10° 02:00:28 10° 297° (WNW) 2,324 6.3 -7.4°
Sets 02:03:03 0° 308° (NW) 3,243 6.9 -7.8°
